This is the latest recevied weather packets stored in our database for station/object G7GQA-4. If no packets are shown the sender has not sent any weather packets the latest 10 day(s).
| Time | Temp. | Humidity | Pressure | Rain* | Wind** | Luminosity | Snow |
|---|---|---|---|---|---|---|---|
| 1777754723 | 11.67° C | 94% | - | 4.06 mm | - | 0 W/m² | - |
| 1777754123 | 12.22° C | 94% | - | 3.56 mm | - | 0 W/m² | - |
| 1777753523 | 12.22° C | 94% | - | 2.29 mm | - | 0 W/m² | - |
| 1777752922 | 12.22° C | 94% | - | 1.52 mm | - | 0 W/m² | - |
| 1777752322 | 12.22° C | 94% | - | 1.27 mm | - | 0 W/m² | - |
| 1777751723 | 12.22° C | 94% | - | 0 mm | - | 0 W/m² | - |
| 1777751123 | 12.22° C | 94% | - | 0 mm | - | 0 W/m² | - |
| 1777750523 | 12.78° C | 94% | - | 0 mm | - | 0 W/m² | - |
| 1777749922 | 12.22° C | 93% | - | 0 mm | - | 1 W/m² | - |
| 1777749323 | 12.22° C | 93% | - | 0 mm | - | 1 W/m² | - |
| 1777748723 | 12.22° C | 93% | - | 0 mm | - | 2 W/m² | - |
| 1777748123 | 12.22° C | 93% | - | 0 mm | - | 3 W/m² | - |
| 1777747523 | 12.22° C | 93% | - | 0 mm | - | 4 W/m² | - |
| 1777746923 | 12.22° C | 93% | - | 0.51 mm | - | 5 W/m² | - |
| 1777746323 | 12.22° C | 93% | - | 0.76 mm | - | 6 W/m² | - |
| 1777745723 | 12.22° C | 93% | - | 1.27 mm | - | 8 W/m² | - |
| 1777745123 | 12.22° C | 93% | - | 1.52 mm | - | 14 W/m² | - |
| 1777744523 | 12.22° C | 93% | - | 2.29 mm | - | 16 W/m² | - |
| 1777743923 | 12.22° C | 93% | - | 3.3 mm | - | 15 W/m² | - |
| 1777743323 | 12.78° C | 92% | - | 4.06 mm | - | 30 W/m² | - |
| 1777742723 | 12.78° C | 92% | - | 5.08 mm | - | 35 W/m² | - |
| 1777742123 | 12.78° C | 92% | - | 5.59 mm | - | 50 W/m² | - |
| 1777741523 | 13.33° C | 91% | - | 5.59 mm | - | 30 W/m² | - |
| 1777740923 | 13.33° C | 91% | - | 5.08 mm | - | 17 W/m² | - |
| 1777740323 | 13.89° C | 90% | - | 4.32 mm | - | 24 W/m² | - |
* Rain latest hour (hover to see other rain measurements)
** Current wind speed in m/s (hover to see current wind gust speed)